FW2284 Weather Reports


Display with metric or nautical units.
time (UTC)temp
F
wind
direction
speed
MPH
gust
MPH
rain 1hr
in
rain 24hr
in
rain mn
in
humidity
%
barometer
mb
20260904210035 98 150 3.0 7.0 0.00 0.00 0.00 42 1012.5
20260904204534 98 238 2.0 8.0 0.00 0.00 0.00 43 1012.8
20260904203035 98 212 3.0 9.0 0.00 0.00 0.00 43 1012.8
20260904201532 98 239 5.0 8.0 0.00 0.00 0.00 43 1013.0
20260904200032 98 159 6.0 11.0 0.00 0.00 0.00 43 1013.1
20260904194534 98 221 4.0 9.0 0.00 0.00 0.00 45 1013.2
20260904193032 99 195 4.0 9.0 0.00 0.00 0.00 41 1013.4
20260904191529 98 196 3.0 7.0 0.00 0.00 0.00 43 1013.5
20260904190025 97 95 3.0 5.0 0.00 0.00 0.00 45 1013.5
20260904184531 97 297 3.0 6.0 0.00 0.00 0.00 44 1013.7
20260904183024 97 53 2.0 5.0 0.00 0.00 0.00 45 1013.7
20260904181541 96 324 0.0 4.0 0.00 0.00 0.00 46 1014.1
20260904180022 96 198 1.0 7.0 0.00 0.00 0.00 48 1014.1
20260904174521 96 293 4.0 8.0 0.00 0.00 0.00 46 1014.2
20260904173023 96 318 5.0 8.0 0.00 0.00 0.00 46 1014.4
20260904171517 95 278 4.0 8.0 0.00 0.00 0.00 48 1014.5
20260904170016 95 321 2.0 9.0 0.00 0.00 0.00 46 1014.7
20260904164514 94 254 6.0 10.0 0.00 0.00 0.00 49 1014.7
20260904163012 94 281 3.0 12.0 0.00 0.00 0.00 51 1014.8
20260904161508 93 274 3.0 9.0 0.00 0.00 0.00 51 1014.7
20260904160006 92 265 2.0 12.0 0.00 0.00 0.00 54 1014.9
20260904154504 92 307 3.0 8.0 0.00 0.00 0.00 56 1014.9
20260904153101 91 306 3.0 8.0 0.00 0.00 0.00 58 1014.9
20260904151559 89 281 3.0 8.0 0.00 0.00 0.00 61 1014.7
20260904150055 89 170 3.0 9.0 0.00 0.00 0.00 61 1014.6
20260904144554 88 201 4.0 7.0 0.00 0.00 0.00 62 1014.5
20260904143053 87 278 3.0 8.0 0.00 0.00 0.00 65 1014.4
20260904141546 85 220 3.0 7.0 0.00 0.00 0.00 67 1014.3
20260904140046 85 250 3.0 6.0 0.00 0.00 0.00 68 1014.3
20260904134545 84 253 1.0 6.0 0.00 0.00 0.00 69 1014.3
20260904133037 83 220 3.0 6.0 0.00 0.00 0.00 70 1014.5
20260904131539 82 180 3.0 6.0 0.00 0.00 0.00 71 1014.4
20260904130036 81 199 2.0 5.0 0.00 0.00 0.00 73 1014.4
20260904124534 80 231 1.0 4.0 0.00 0.00 0.00 75 1014.3
20260904123034 79 153 1.0 3.0 0.00 0.00 0.00 77 1014.0
20260904121531 77 198 0.0 3.0 0.00 0.00 0.00 80 1014.0
20260904120036 75 184 0.0 3.0 0.00 0.00 0.00 82 1014.0
20260904114537 75 186 1.0 2.0 0.00 0.00 0.00 82 1014.0
20260904113138 75 205 0.0 0.0 0.00 0.00 0.00 81 1013.8
20260904111600 76 205 0.0 2.0 0.00 0.00 0.00 80 1013.6
20260904110056 76 203 0.0 2.0 0.00 0.00 0.00 80 1013.5
20260904104557 76 210 0.0 2.0 0.00 0.00 0.00 79 1013.4
20260904103048 77 206 0.0 2.0 0.00 0.00 0.00 78 1013.3
20260904101547 77 234 0.0 3.0 0.00 0.00 0.00 77 1013.3
20260904100045 77 209 1.0 3.0 0.00 0.00 0.00 77 1013.3
20260904094545 78 199 0.0 2.0 0.00 0.00 0.00 77 1013.4
20260904093046 78 195 0.0 2.0 0.00 0.00 0.00 77 1013.1
20260904091541 78 218 0.0 2.0 0.00 0.00 0.00 75 1013.2
20260904090040 79 210 0.0 2.0 0.00 0.00 0.00 75 1013.1
20260904084540 79 149 1.0 3.0 0.00 0.00 0.00 74 1013.0
20260904083038 80 231 0.0 1.0 0.00 0.00 0.00 73 1012.9
20260904081533 80 221 1.0 3.0 0.00 0.00 0.00 72 1012.7
20260904080035 81 202 1.0 4.0 0.00 0.00 0.00 71 1012.7
20260904074529 81 217 1.0 5.0 0.00 0.00 0.00 70 1012.6
20260904073028 81 166 1.0 6.0 0.00 0.00 0.00 70 1012.7
20260904071526 82 190 1.0 6.0 0.00 0.00 0.00 69 1012.8
20260904070025 82 202 3.0 7.0 0.00 0.00 0.00 69 1012.7
20260904064528 82 186 2.0 7.0 0.00 0.00 0.00 69 1012.7
20260904063030 83 145 4.0 8.0 0.00 0.00 0.00 68 1012.8
20260904061523 83 131 4.0 7.0 0.00 0.00 0.00 69 1012.8
20260904060023 83 169 3.0 6.0 0.00 0.00 0.00 70 1012.9
20260904054524 83 147 1.0 7.0 0.00 0.00 0.00 71 1012.7
20260904053025 83 143 3.0 7.0 0.00 0.00 0.00 71 1012.6
20260904051517 83 142 2.0 6.0 0.00 0.00 0.00 71 1012.5
20260904050012 82 152 3.0 6.0 0.00 0.00 0.00 72 1012.5
20260904044512 82 145 2.0 4.0 0.00 0.00 0.00 71 1012.6
20260904043012 83 133 2.0 4.0 0.00 0.00 0.00 70 1012.6
20260904041509 83 127 1.0 5.0 0.00 0.00 0.00 69 1012.5
20260904040009 84 167 2.0 7.0 0.00 0.00 0.00 68 1012.6
20260904034509 84 136 2.0 5.0 0.00 0.00 0.00 68 1012.6
20260904033008 84 122 2.0 6.0 0.00 0.00 0.00 68 1012.6
20260904031507 84 156 2.0 4.0 0.00 0.00 0.00 68 1012.6
20260904030007 84 122 1.0 3.0 0.00 0.00 0.00 69 1012.6
20260904024507 84 133 0.0 2.0 0.00 0.00 0.00 69 1012.4
20260904023006 84 129 1.0 2.0 0.00 0.00 0.00 68 1012.5
20260904021504 84 154 0.0 2.0 0.00 0.00 0.00 68 1012.2
20260904020004 84 141 0.0 3.0 0.00 0.00 0.00 69 1012.2
20260904014504 84 173 0.0 0.0 0.00 0.00 0.00 69 1012.0
20260904013003 84 156 0.0 1.0 0.00 0.00 0.00 67 1011.8
20260904011502 84 215 0.0 0.0 0.00 0.00 0.00 67 1011.8
20260904010004 86 240 0.0 0.0 0.00 0.00 0.00 66 1011.8
20260904004600 87 240 0.0 0.0 0.00 0.00 0.00 61 1011.7
20260904003100 90 240 0.0 0.0 0.00 0.00 0.00 56 1011.5
20260904001605 95 240 0.0 0.0 0.00 0.00 0.00 50 1011.4
20260904000059 97 240 0.0 0.0 0.00 0.00 0.00 47 1011.4
20260903234558 97 241 0.0 1.0 0.00 0.00 0.00 46 1011.4
20260903233056 97 155 1.0 4.0 0.00 0.00 0.00 47 1011.5
20260903231555 97 156 2.0 4.0 0.00 0.00 0.00 46 1011.4
20260903230055 97 152 2.0 5.0 0.00 0.00 0.00 44 1011.4
20260903224553 97 216 2.0 6.0 0.00 0.00 0.00 45 1011.4
20260903223056 97 155 3.0 6.0 0.00 0.00 0.00 44 1011.5
20260903221552 97 232 3.0 6.0 0.00 0.00 0.00 42 1011.5
20260903214549 98 186 2.0 6.0 0.00 0.00 0.00 40 1011.7
20260903213049 97 233 3.0 8.0 0.00 0.00 0.00 45 1011.9
20260903211546 97 96 4.0 9.0 0.00 0.00 0.00 43 1012.0